Hourly Weather Dąbrowa Tarnowska

Today, 17 April, Saturday

Time Temperature Precipitation Wind Pressure Humidity
00:00 -1°C° 0.3 mm 4 mps 745 mmHg 99%
01:00 -1°C° 0.3 mm 4 mps 745 mmHg 99%
02:00 0°C° 0.1 mm 3 mps 745 mmHg 99%
03:00 0°C° 0.1 mm 3 mps 745 mmHg 99%
04:00 +1°C° 0.1 mm 3 mps 745 mmHg 99%
05:00 +1°C° 0.1 mm 3 mps 745 mmHg 99%
06:00 +1°C° 0.1 mm 3 mps 745 mmHg 99%
07:00 +1°C° 0.1 mm 3 mps 746 mmHg 99%
08:00 +2°C° 0 mm 3 mps 746 mmHg 99%
09:00 +2°C° 0 mm 3 mps 746 mmHg 99%
10:00 +2°C° 0 mm 3 mps 746 mmHg 98%
11:00 +3°C° 0 mm 3 mps 746 mmHg 98%
12:00 +4°C° 0 mm 2 mps 746 mmHg 97%
13:00 +4°C° 0 mm 2 mps 746 mmHg 96%
14:00 +4°C° 0 mm 2 mps 746 mmHg 97%
15:00 +4°C° 0 mm 2 mps 746 mmHg 97%
16:00 +4°C° 0 mm 2 mps 746 mmHg 97%
17:00 +5°C° 0 mm 1 mps 746 mmHg 98%
18:00 +5°C° 0 mm 1 mps 746 mmHg 98%
19:00 +4°C° 0 mm 1 mps 746 mmHg 98%
20:00 +4°C° 0 mm 1 mps 746 mmHg 98%
21:00 +4°C° 0 mm 1 mps 746 mmHg 97%
22:00 +3°C° 0 mm 0 mps 746 mmHg 97%
23:00 +3°C° 0 mm 0 mps 746 mmHg 97%

Tomorrow, 18 April, Sunday

Time Temperature Precipitation Wind Pressure Humidity
00:00 +3°C° 0 mm 0 mps 746 mmHg 97%
01:00 +3°C° 0 mm 0 mps 746 mmHg 97%
02:00 +3°C° 0 mm 0 mps 746 mmHg 97%
03:00 +3°C° 0 mm 0 mps 746 mmHg 97%
04:00 +4°C° 0 mm 1 mps 746 mmHg 96%
05:00 +4°C° 0 mm 1 mps 746 mmHg 94%
06:00 +5°C° 0 mm 1 mps 746 mmHg 92%
07:00 +5°C° 0 mm 1 mps 746 mmHg 90%
08:00 +6°C° 0 mm 1 mps 746 mmHg 85%
09:00 +7°C° 0 mm 2 mps 745 mmHg 80%
10:00 +8°C° 0 mm 2 mps 745 mmHg 76%
11:00 +9°C° 0 mm 2 mps 745 mmHg 73%
12:00 +9°C° 0 mm 2 mps 745 mmHg 71%
13:00 +10°C° 0 mm 2 mps 745 mmHg 68%
14:00 +10°C° 0 mm 2 mps 745 mmHg 70%
15:00 +10°C° 0 mm 2 mps 745 mmHg 71%
16:00 +11°C° 0 mm 1 mps 745 mmHg 73%
17:00 +10°C° 0 mm 1 mps 745 mmHg 76%
18:00 +9°C° 0 mm 1 mps 745 mmHg 79%
19:00 +7°C° 0 mm 0 mps 745 mmHg 82%
20:00 +8°C° 0 mm 1 mps 745 mmHg 84%
21:00 +8°C° 0 mm 1 mps 745 mmHg 85%
22:00 +7°C° 0 mm 1 mps 745 mmHg 86%
23:00 +7°C° 0 mm 1 mps 744 mmHg 87%

Day after tomorrow, 19 April, Monday

Time Temperature Precipitation Wind Pressure Humidity
00:00 +7°C° 0 mm 1 mps 744 mmHg 88%
01:00 +7°C° 0 mm 1 mps 744 mmHg 89%
02:00 +7°C° 0 mm 1 mps 744 mmHg 89%
03:00 +7°C° 0 mm 1 mps 744 mmHg 90%
04:00 +7°C° 0 mm 1 mps 744 mmHg 90%
05:00 +7°C° 0 mm 1 mps 744 mmHg 89%
06:00 +8°C° 0 mm 1 mps 744 mmHg 88%
07:00 +8°C° 0 mm 2 mps 744 mmHg 87%
08:00 +9°C° 0.1 mm 2 mps 743 mmHg 82%
09:00 +10°C° 0.1 mm 3 mps 743 mmHg 78%
10:00 +11°C° 0.1 mm 4 mps 743 mmHg 74%
11:00 +11°C° 0.3 mm 4 mps 743 mmHg 72%
12:00 +12°C° 0.3 mm 5 mps 743 mmHg 70%
13:00 +12°C° 0.3 mm 5 mps 742 mmHg 69%
14:00 +10°C° 0.4 mm 5 mps 742 mmHg 72%
15:00 +11°C° 0.4 mm 4 mps 742 mmHg 75%
16:00 +11°C° 0.4 mm 4 mps 742 mmHg 78%
17:00 +10°C° 0.1 mm 3 mps 742 mmHg 81%
18:00 +9°C° 0.1 mm 2 mps 742 mmHg 84%
19:00 +9°C° 0.1 mm 1 mps 742 mmHg 87%
20:00 +8°C° 0 mm 1 mps 742 mmHg 88%
21:00 +7°C° 0 mm 2 mps 742 mmHg 90%
22:00 +6°C° 0 mm 2 mps 742 mmHg 91%
23:00 +6°C° 0 mm 2 mps 742 mmHg 92%

20 April, Tuesday

Time Temperature Precipitation Wind Pressure Humidity
00:00 +6°C° 0 mm 2 mps 741 mmHg 93%
01:00 +6°C° 0 mm 2 mps 741 mmHg 94%
02:00 +6°C° 0 mm 2 mps 741 mmHg 94%
03:00 +6°C° 0 mm 2 mps 741 mmHg 94%
04:00 +6°C° 0 mm 1 mps 741 mmHg 93%
05:00 +7°C° 0 mm 1 mps 741 mmHg 91%
06:00 +7°C° 0 mm 1 mps 741 mmHg 88%
07:00 +8°C° 0 mm 1 mps 741 mmHg 85%
08:00 +9°C° 0.1 mm 1 mps 741 mmHg 80%
09:00 +8°C° 0.1 mm 2 mps 741 mmHg 75%
10:00 +9°C° 0.1 mm 2 mps 741 mmHg 69%
11:00 +10°C° 0 mm 2 mps 740 mmHg 64%
12:00 +12°C° 0 mm 2 mps 740 mmHg 59%
13:00 +13°C° 0 mm 2 mps 740 mmHg 54%
14:00 +12°C° 0.1 mm 3 mps 739 mmHg 55%
15:00 +12°C° 0.1 mm 3 mps 739 mmHg 56%
16:00 +12°C° 0.1 mm 3 mps 739 mmHg 57%
17:00 +11°C° 0.1 mm 3 mps 739 mmHg 64%
18:00 +9°C° 0.1 mm 2 mps 739 mmHg 70%
19:00 +8°C° 0.1 mm 2 mps 739 mmHg 77%
20:00 +7°C° 0.1 mm 2 mps 739 mmHg 81%
21:00 +6°C° 0.1 mm 2 mps 739 mmHg 84%
22:00 +6°C° 0.1 mm 2 mps 739 mmHg 87%
23:00 +6°C° 0.1 mm 2 mps 739 mmHg 89%

21 April, Wednesday

Time Temperature Precipitation Wind Pressure Humidity
00:00 +5°C° 0.1 mm 2 mps 739 mmHg 90%
01:00 +5°C° 0.1 mm 2 mps 739 mmHg 91%
02:00 +4°C° 0.1 mm 3 mps 739 mmHg 91%
03:00 +4°C° 0.1 mm 3 mps 739 mmHg 92%
04:00 +4°C° 0.1 mm 3 mps 739 mmHg 92%
05:00 +5°C° 0.1 mm 3 mps 739 mmHg 90%
06:00 +6°C° 0.1 mm 4 mps 739 mmHg 88%
07:00 +6°C° 0.1 mm 4 mps 739 mmHg 86%
08:00 +7°C° 0.2 mm 4 mps 739 mmHg 78%
09:00 +9°C° 0.2 mm 5 mps 739 mmHg 71%
10:00 +10°C° 0.2 mm 5 mps 739 mmHg 63%
11:00 +10°C° 0.1 mm 5 mps 739 mmHg 60%
12:00 +12°C° 0.1 mm 4 mps 739 mmHg 56%
13:00 +13°C° 0.1 mm 4 mps 739 mmHg 53%
14:00 +13°C° 0 mm 3 mps 739 mmHg 52%
15:00 +13°C° 0 mm 3 mps 739 mmHg 52%
16:00 +14°C° 0 mm 2 mps 739 mmHg 51%
17:00 +13°C° 0 mm 2 mps 740 mmHg 56%
18:00 +10°C° 0 mm 2 mps 740 mmHg 61%
19:00 +10°C° 0 mm 1 mps 740 mmHg 65%
20:00 +8°C° 0 mm 2 mps 740 mmHg 69%
21:00 +8°C° 0 mm 2 mps 740 mmHg 72%
22:00 +7°C° 0 mm 2 mps 741 mmHg 76%
23:00 +7°C° 0 mm 2 mps 741 mmHg 79%

22 April, Thursday

Time Temperature Precipitation Wind Pressure Humidity
00:00 +6°C° 0 mm 2 mps 741 mmHg 83%
01:00 +6°C° 0 mm 2 mps 741 mmHg 86%
02:00 +6°C° 0 mm 2 mps 741 mmHg 87%
03:00 +5°C° 0 mm 2 mps 741 mmHg 88%
04:00 +5°C° 0 mm 2 mps 741 mmHg 89%
05:00 +7°C° 0 mm 2 mps 741 mmHg 84%
06:00 +8°C° 0 mm 2 mps 741 mmHg 80%
07:00 +10°C° 0 mm 3 mps 742 mmHg 75%
08:00 +12°C° 0 mm 3 mps 742 mmHg 70%
09:00 +14°C° 0 mm 3 mps 742 mmHg 64%
10:00 +15°C° 0 mm 4 mps 742 mmHg 58%
11:00 +17°C° 0.1 mm 4 mps 742 mmHg 56%
12:00 +17°C° 0.1 mm 5 mps 742 mmHg 53%
13:00 +17°C° 0.1 mm 5 mps 741 mmHg 51%
14:00 +17°C° 0.2 mm 5 mps 741 mmHg 54%
15:00 +16°C° 0.2 mm 5 mps 741 mmHg 58%
16:00 +17°C° 0.2 mm 4 mps 741 mmHg 62%
17:00 +14°C° 0.2 mm 4 mps 742 mmHg 69%
18:00 +13°C° 0.2 mm 4 mps 742 mmHg 75%
19:00 +11°C° 0.2 mm 3 mps 742 mmHg 82%
20:00 +10°C° 0 mm 3 mps 742 mmHg 84%
21:00 +10°C° 0 mm 3 mps 742 mmHg 86%
22:00 +9°C° 0 mm 3 mps 742 mmHg 87%
23:00 +9°C° 0 mm 3 mps 742 mmHg 88%
Show more